Sisseton, SD

10:40 PM CST on November 19, 2017 (GMT -0600)
Sisseton

Weather History for K8D3 - January, 2012

Change the Weather History Date:

Friday, January 27, 2012

  Actual Average Record
Temperature  
Mean Temperature 30 °F 14 °F  
Max Temperature 36 °F 24 °F 57 °F (1989)
Min Temperature 23 °F 3 °F -24 °F (1902)
Degree Days  
Heating Degree Days 35 51  
Month to date heating degree days 1161 1403  
Since 1 July heating degree days 3928 4742  
Cooling Degree Days 0 0  
Month to date cooling degree days 0 0  
Year to date cooling degree days 0 0  
Moisture  
Dew Point 21 °F    
Average Humidity 65    
Maximum Humidity 89    
Minimum Humidity 41    
Precipitation  
Precipitation 0.01 in 0.01 in 0.62 in (1944)
Month to date precipitation 0.44 0.39  
Year to date precipitation 0.44 0.39  
Snow  
Snow 0.00 in - - ()
Month to date snowfall 2.5  
Since 1 July snowfall 4.3  
Snow Depth -    
Sea Level Pressure  
Sea Level Pressure 29.88 in    
Wind  
Wind Speed 19 mph (WNW)    
Max Wind Speed 36 mph    
Max Gust Speed 45 mph    
T = Trace of Precipitation, MM = Missing Value Source: NWS Daily Summary

Daily Weather History Graph

Daily Weather History Graph

Search for Another Location

Airport or City:

Trip Planner

Search our weather history database for the weather conditions in past years. The results will help you decide how hot, cold, wet, or windy it might be!

Date:

Astronomy

Jan. 27, 2012 Rise Set
Actual Time 7:55 AM CST 5:26 PM CST
Civil Twilight 7:23 AM CST 5:58 PM CST
Nautical Twilight 6:47 AM CST 6:34 PM CST
Astronomical Twilight 6:12 AM CST 7:09 PM CST
Moon 9:33 AM CST (1/27) 10:37 PM CST (1/27)
Length of Visible Light 10h 35m
Length of Day
9h 30m
Waxing Crescent, 20% of the Moon is Illuminated
Jan 27
Waxing Crescent
Jan 30
First Quarter
Feb 7
Full
Feb 14
Last Quarter
Feb 21
New

Hourly Weather History & Observations

Time (CST) Temp. Windchill Dew Point Humidity Pressure Visibility Wind Dir Wind Speed Gust Speed Precip Events Conditions
12:56 AM 32.0 °F 24.8 °F 23.0 °F 69% 29.81 in - SW 8.1 mph - N/A   Unknown
1:56 AM 30.0 °F 23.2 °F 23.0 °F 75% 29.78 in - South 6.9 mph - N/A   Unknown
2:56 AM 32.0 °F 24.2 °F 18.0 °F 56% 29.76 in - SSW 9.2 mph - N/A   Unknown
3:56 AM 34.0 °F 23.8 °F 12.9 °F 42% 29.73 in - SW 16.1 mph - N/A   Unknown
4:56 AM 34.0 °F 23.0 °F 15.1 °F 46% 29.70 in - SSW 18.4 mph - N/A   Unknown
5:56 AM 33.1 °F 19.8 °F 24.1 °F 70% 29.67 in - WSW 26.5 mph 38.0 mph N/A   Unknown
7:56 AM 35.1 °F 26.4 °F 32.0 °F 89% 29.71 in - SW 12.7 mph - N/A   Unknown
8:56 AM 36.0 °F 25.6 °F 30.9 °F 82% 29.71 in - West 18.4 mph - 0.01 in   Unknown
9:56 AM 35.1 °F 23.0 °F 30.9 °F 85% 29.73 in - NW 24.2 mph 33.4 mph N/A   Unknown
10:56 AM 30.0 °F 16.0 °F 25.0 °F 82% 29.82 in - North 25.3 mph 42.6 mph N/A   Unknown
11:56 AM 30.9 °F 16.2 °F 25.0 °F 79% 29.85 in - NNW 29.9 mph 38.0 mph N/A   Unknown
12:56 PM 30.9 °F 15.9 °F 24.1 °F 76% 29.88 in - North 31.1 mph 38.0 mph N/A   Unknown
1:56 PM 33.1 °F 19.3 °F 21.9 °F 64% 29.91 in - NNW 28.8 mph 36.8 mph N/A   Unknown
2:56 PM 32.0 °F 18.9 °F 21.0 °F 64% 29.95 in - NNW 24.2 mph 32.2 mph N/A   Unknown
3:56 PM 32.0 °F 20.8 °F 19.9 °F 61% 29.97 in - NNW 17.3 mph 27.6 mph N/A   Unknown
4:56 PM 30.0 °F 19.1 °F 18.0 °F 61% 29.99 in - NNW 15.0 mph - N/A   Unknown
5:56 PM 28.9 °F 16.9 °F 19.0 °F 67% 30.01 in - NNW 17.3 mph - N/A   Unknown
6:56 PM 30.0 °F 17.9 °F 19.9 °F 66% 30.02 in - NW 18.4 mph - N/A   Unknown
7:56 PM 28.0 °F 14.6 °F 17.1 °F 63% 30.04 in - NW 20.7 mph 28.8 mph N/A   Unknown
8:56 PM 27.0 °F 13.5 °F 15.1 °F 61% 30.05 in - NW 19.6 mph 27.6 mph N/A   Unknown
9:56 PM 25.0 °F 11.3 °F 12.9 °F 60% 30.04 in - WNW 18.4 mph - N/A   Unknown
10:56 PM 24.1 °F 10.1 °F 12.9 °F 62% 30.04 in - WNW 18.4 mph - N/A   Unknown
11:56 PM 23.0 °F 9.2 °F 12.0 °F 63% 30.04 in - WNW 17.3 mph 28.8 mph N/A   Unknown